Penn Yan, NY

3:37 PM EST on February 11, 2016 (GMT -0500)
Penn Yan

Weather History for KPEO - February, 2013

Change the Weather History Date:

Wednesday, February 13, 2013

  Actual Average (KITH) Record (KITH)
Temperature  
Mean Temperature 32 °F -  
Max Temperature 37 °F 29 °F 57 °F (1937)
Min Temperature 27 °F 12 °F -15 °F (1979)
Degree Days  
Heating Degree Days 32    
Moisture  
Dew Point 21 °F    
Average Humidity 64    
Maximum Humidity 81    
Minimum Humidity 54    
Precipitation  
Precipitation 0.00 in - - ()
Sea Level Pressure  
Sea Level Pressure 29.82 in    
Wind  
Wind Speed 5 mph (SW)    
Max Wind Speed 8 mph    
Max Gust Speed -    
Visibility 10 miles    
Events      
Averages and records for this station are not official NWS values.
T = Trace of Precipitation, MM = Missing Value Source: NWS Daily Summary

Daily Weather History Graph

Daily Weather History Graph

Search for Another Location

Airport or City:

Trip Planner

Search our weather history database for the weather conditions in past years. The results will help you decide how hot, cold, wet, or windy it might be!

Date:

Astronomy

Feb. 13, 2013 Rise Set
Actual Time 7:07 AM EST 5:37 PM EST
Civil Twilight 6:38 AM EST 6:06 PM EST
Nautical Twilight 6:05 AM EST 6:40 PM EST
Astronomical Twilight 5:32 AM EST 7:12 PM EST
Moon 8:29 AM EST (2/13) 9:45 PM EST (2/13)
Length of Visible Light 11h 28m
Length of Day
10h 30m
Waxing Crescent, 13% of the Moon is Illuminated
Feb 13
Waxing Crescent
Feb 17
First Quarter
Feb 25
Full
Mar 4
Last Quarter
Mar 11
New

Hourly Weather History & Observations

Time (EST) Temp. Windchill Dew Point Humidity Pressure Visibility Wind Dir Wind Speed Gust Speed Precip Events Conditions
12:53 AM 30.0 °F 23.2 °F 19.9 °F 66% 29.93 in 10.0 mi SW 6.9 mph - N/A   Overcast
1:05 AM 30.2 °F 23.4 °F 19.4 °F 64% 29.89 in 10.0 mi SW 6.9 mph - N/A   Overcast
1:53 AM 30.0 °F 24.1 °F 19.9 °F 66% 29.93 in 10.0 mi SW 5.8 mph - N/A   Overcast
2:53 AM 30.0 °F 23.2 °F 21.0 °F 69% 29.91 in 10.0 mi SW 6.9 mph - N/A   Overcast
3:53 AM 30.9 °F 25.2 °F 19.9 °F 64% 29.90 in 10.0 mi SSW 5.8 mph - N/A   Overcast
4:53 AM 30.0 °F 26.5 °F 21.0 °F 69% 29.89 in 10.0 mi South 3.5 mph - N/A   Overcast
5:53 AM 30.9 °F 27.5 °F 19.9 °F 64% 29.88 in 10.0 mi Variable 3.5 mph - N/A   Overcast
6:53 AM 30.9 °F 24.3 °F 21.0 °F 67% 29.88 in 10.0 mi WSW 6.9 mph - N/A   Overcast
7:53 AM 30.9 °F 27.5 °F 21.0 °F 67% 29.88 in 10.0 mi SW 3.5 mph - N/A   Overcast
8:53 AM 32.0 °F - 19.9 °F 61% 29.86 in 10.0 mi Calm Calm - N/A   Overcast
9:53 AM 32.0 °F 26.4 °F 19.9 °F 61% 29.86 in 10.0 mi WSW 5.8 mph - N/A   Overcast
10:06 AM 32.0 °F 26.4 °F 19.4 °F 60% 29.82 in 10.0 mi SW 5.8 mph - N/A   Overcast
10:53 AM 32.0 °F 28.7 °F 19.9 °F 61% 29.84 in 10.0 mi SW 3.5 mph - N/A   Overcast
11:10 AM 33.8 °F 29.6 °F 19.4 °F 56% 29.81 in 10.0 mi WSW 4.6 mph - N/A   Overcast
11:53 AM 33.1 °F - 19.0 °F 56% 29.81 in 10.0 mi Calm Calm - N/A   Mostly Cloudy
12:53 PM 34.0 °F - 19.9 °F 56% 29.80 in 10.0 mi Calm Calm - N/A   Clear
1:53 PM 36.0 °F 31.1 °F 21.9 °F 57% 29.77 in 10.0 mi Variable 5.8 mph - N/A   Clear
2:53 PM 37.0 °F 31.0 °F 21.9 °F 54% 29.74 in 10.0 mi East 8.1 mph - N/A   Clear
3:53 PM 37.0 °F 33.3 °F 23.0 °F 57% 29.73 in 10.0 mi Variable 4.6 mph - N/A   Clear
4:53 PM 35.1 °F 31.0 °F 21.9 °F 59% 29.73 in 10.0 mi NNE 4.6 mph - N/A   Clear
5:53 PM 32.0 °F - 21.9 °F 66% 29.73 in 10.0 mi Calm Calm - N/A   Clear
6:53 PM 30.0 °F - 21.9 °F 72% 29.75 in 10.0 mi Calm Calm - N/A   Clear
7:53 PM 30.0 °F - 21.0 °F 69% 29.76 in 10.0 mi Calm Calm - N/A   Clear
8:53 PM 30.0 °F - 21.9 °F 72% 29.77 in 9.0 mi Calm Calm - N/A   Clear
9:53 PM 28.9 °F - 21.0 °F 72% 29.78 in 10.0 mi Calm Calm - N/A   Clear
10:53 PM 28.0 °F - 19.9 °F 72% 29.78 in 10.0 mi Calm Calm - N/A   Clear
11:53 PM 27.0 °F 21.6 °F 21.9 °F 81% 29.80 in 8.0 mi NW 4.6 mph - N/A   Clear